CW9832 Weather Reports


Display with metric or nautical units.
time (UTC)temp
F
wind
direction
speed
MPH
gust
MPH
rain 1hr
in
rain 24hr
in
rain mn
in
humidity
%
barometer
mb
20260504070108 50 178 0.0 0.0 0.00 0.00 0.00 85 1016.8
20260504045813 53 227 0.0 0.0 0.00 0.01 0.00 77 1017.3
20260504044836 54 227 0.0 0.0 0.00 0.01 0.00 77 1017.3
20260504043827 54 227 0.0 0.0 0.00 0.01 0.00 75 1017.2
20260504042846 54 227 0.0 0.0 0.00 0.01 0.00 74 1017.3
20260504041847 54 227 0.0 0.0 0.00 0.01 0.00 75 1017.1
20260504040910 54 227 0.0 0.0 0.00 0.01 0.00 75 1017.1
20260504034744 55 227 0.0 0.0 0.00 0.01 0.01 74 1017.1
20260504033751 55 227 0.0 0.0 0.00 0.01 0.01 74 1017.1
20260504032813 55 227 0.0 0.0 0.00 0.01 0.01 73 1017.1
20260504031741 55 227 0.0 0.0 0.00 0.01 0.01 73 1017.1
20260504030805 56 227 0.0 0.0 0.00 0.01 0.01 71 1017.0
20260504025759 56 227 0.0 0.0 0.00 0.01 0.01 71 1017.0
20260504024815 56 227 0.0 0.0 0.00 0.01 0.01 69 1017.1
20260504023816 56 227 0.0 0.0 0.00 0.01 0.01 67 1017.0
20260504022829 57 227 0.0 0.0 0.00 0.01 0.01 69 1017.0
20260504021854 57 227 0.0 0.0 0.00 0.01 0.01 66 1016.9
20260504020837 57 227 0.0 0.0 0.00 0.01 0.01 65 1016.8
20260504015858 58 227 0.0 0.0 0.00 0.01 0.01 67 1016.7
20260504012608 59 227 0.0 0.0 0.00 0.05 0.01 62 1016.3
20260504011625 59 227 0.0 0.0 0.00 0.05 0.01 65 1016.1
20260504010601 60 227 0.0 0.0 0.00 0.05 0.01 60 1016.0
20260504005550 60 227 0.0 0.0 0.00 0.05 0.01 61 1015.8
20260504004536 61 227 0.0 0.0 0.00 0.05 0.01 57 1015.8
20260504003502 62 227 0.0 0.0 0.00 0.05 0.01 58 1015.7
20260504001401 64 227 0.0 0.0 0.00 0.05 0.01 54 1015.6
20260504000328 65 227 0.0 0.0 0.00 0.05 0.01 52 1015.5
20260503235301 66 227 0.0 0.0 0.00 0.05 0.01 52 1015.5
20260503232020 68 262 0.0 4.0 0.00 0.05 0.01 44 1015.5
20260503225856 69 275 0.0 5.0 0.00 0.05 0.01 43 1015.6
20260503224836 69 276 0.0 2.0 0.00 0.05 0.01 46 1015.6
20260503223901 70 305 0.0 3.0 0.00 0.05 0.01 50 1015.6
20260503222857 70 355 0.0 4.0 0.00 0.05 0.01 43 1015.7
20260503221915 71 326 0.0 1.0 0.00 0.05 0.01 47 1015.7
20260503220853 71 308 0.0 0.0 0.00 0.05 0.01 42 1015.7
20260503215855 71 260 1.0 9.0 0.00 0.05 0.01 39 1015.7
20260503214911 72 325 1.0 8.0 0.00 0.05 0.01 44 1015.7
20260503213921 72 288 0.0 2.0 0.00 0.05 0.01 36 1015.6
20260503211755 74 176 0.0 5.0 0.00 0.05 0.01 38 1015.7
20260503210743 74 170 1.0 12.0 0.00 0.05 0.01 38 1015.7
20260503205752 74 238 0.0 9.0 0.00 0.05 0.01 40 1015.8
20260503204742 74 270 0.0 5.0 0.00 0.05 0.01 41 1015.8
20260503203715 74 323 0.0 7.0 0.00 0.05 0.01 42 1015.9
20260503202708 73 322 0.0 5.0 0.00 0.05 0.01 41 1016.0
20260503200542 73 246 1.0 0.0 0.00 0.06 0.01 42 1016.4
20260503195547 73 347 1.0 9.0 0.00 0.07 0.01 44 1016.6
20260503194556 73 315 1.0 8.0 0.00 0.07 0.01 44 1016.7
20260503193552 73 325 1.0 10.0 0.00 0.07 0.01 43 1016.8
20260503192519 72 311 1.0 8.0 0.00 0.07 0.01 42 1017.1
20260503191512 72 328 2.0 8.0 0.00 0.07 0.01 41 1017.3
20260503184211 71 223 1.0 0.0 0.00 0.07 0.01 44 1017.8
20260503183148 71 191 1.0 6.0 0.00 0.07 0.01 46 1018.1
20260503182207 71 257 0.0 0.0 0.00 0.07 0.01 46 1018.3
20260503181144 70 237 1.0 7.0 0.00 0.07 0.01 45 1018.4
20260503180113 70 188 1.0 8.0 0.00 0.07 0.01 45 1018.5
20260503175131 70 319 1.0 8.0 0.00 0.07 0.01 50 1018.6
20260503174115 70 195 0.0 8.0 0.00 0.07 0.01 48 1018.7
20260503173135 70 184 1.0 7.0 0.00 0.07 0.01 53 1018.8
20260503172103 69 273 1.0 9.0 0.00 0.07 0.01 50 1018.7
20260503171115 69 260 1.0 10.0 0.00 0.07 0.01 49 1018.9
20260503150639 61 68 0.0 0.0 0.00 0.12 0.01 70 1019.9
20260503130322 51 88 0.0 0.0 0.00 0.19 0.01 93 1019.5
20260503110753 45 88 0.0 0.0 0.00 0.31 0.01 92 1018.4
20260503090313 47 88 0.0 0.0 0.00 0.41 0.01 92 1016.8
20260503081211 49 88 0.0 0.0 0.00 0.49 0.01 93 1016.5
20260503080152 49 88 0.0 0.0 0.00 0.51 0.01 92 1016.4